Regional Weather Roundup
Issued by NWS Charleston, SC

Current Version | Previous Version | Graphics & Text | Print | Product List | Glossary On
Versions: 1 2 3 4 5 6 7 8 9 10 11 12 13 14 15 16 17 18 19 20 21 22 23 24 25 26 27 28 29 30 31 32 33 34 35 36 37 38 39 40 41 42 43 44 45 46 47 48 49 50
000 ASUS42 KCHS 200827 RWRCHS Regional Weather Roundup National Weather Service Charleston SC 400 AM EDT SUN MAY 20 2018 NOTE: "fair" indicates few or no clouds below 12,000 feet with no significant weather and/or obstructions to visibility. Not all stations are quality controlled. Use data with caution, especially dewpoint observations. SCZ027-030-031-034>040-042>050-200900- ...Southeast South Carolina... CITY SKY/WX TMP DP RH WIND PRES REMARKS N Charleston MOCLDY 72 70 93 S6 30.11R Waterfront Prk N/A 74 71 90 VRB3 29.95S Mount Pleasant FAIR 72 72 100 CALM 30.12S Johns Island PTSUNNY 73 72 94 CALM 30.11S Pinopolis N/A 72 72 100 CALM 30.03R Moncks Corner CLOUDY 70 68 94 CALM 30.12R Summerville CLOUDY 68 68 100 CALM 30.12S Beaufort MCAS FAIR 76 73 91 S3 30.11R Beaufort Arpt FAIR 73 72 94 SW3 30.11R Hilton Head Is FAIR 75 72 88 SW6 30.11S Walterboro FAIR 70 70 100 CALM 30.12S Allendale FAIR 72 72 100 CALM 30.10R ...Southern Midlands and Pee Dee... CITY SKY/WX TMP DP RH WIND PRES REMARKS Georgetown CLOUDY 70 68 94 CALM 30.14S Kingstree CLOUDY 68 68 100 E5 30.12S Orangeburg FAIR 71 69 93 CALM 30.11S Barnwell CLOUDY 72 70 94 CALM 30.11S Aiken PTSUNNY 68 68 100 S3 30.14S Manning PTSUNNY 66 66 100 CALM 30.12R Columbia MOCLDY 74 71 91 CALM 30.10S Sumter CLOUDY 72 70 94 SW3 30.09S Florence CLOUDY 70 69 97 SE5 30.12S FOG Myrtle Beach LGT RAIN 70 69 97 S14 30.13F N Myrtle Beach LGT RAIN 71 69 93 SW17 30.13S $$ GAZ063-065-086>088-099>101-113>116-118-119-134>141-150-200900- ...Southeast Georgia... CITY SKY/WX TMP DP RH WIND PRES REMARKS Savannah Arpt FAIR 73 71 93 S3 30.11R Hunter AAF FAIR 75 70 85 SW5 30.08R Fort Stewart FAIR 71 71 97 CALM 30.09R Statesboro CLOUDY 72 71 97 S3 30.10S Sylvania PTSUNNY 73 72 99 CALM 30.11S Claxton FAIR 73 72 97 CALM 30.10S ...CSRA, Central and far Southeast Georgia... CITY SKY/WX TMP DP RH WIND PRES REMARKS Thomson FAIR 67 67 97 CALM 30.14S FOG Augusta-Bush FAIR 70 69 97 CALM 30.09S Augusta-Daniel MOCLDY 72 71 97 SE3 30.10F Swainsboro FAIR 72 70 94 CALM 30.11S Vidalia MOCLDY 72 68 88 CALM 30.10R Eastman N/A 70 63 78 CALM 30.11R HAZE Hazlehurst N/A 74 69 86 S3 30.08S Alma LGT RAIN 73 69 87 S5 30.09F Waycross FAIR 71 68 90 S3 30.10S Jesup FAIR 72 70 94 CALM 30.10S Baxley FAIR 70 70 100 CALM 30.09S Brunswick FAIR 72 68 88 CALM 30.11S Saint Simons FAIR 74 70 87 SW5 30.10S $$ SCZ027-028-034-036>038-045-046-048>050-GAZ119-141-200900- ...Lake and Supplemental Coastal Observations... STATION/POSITION TIME TEMP WIND PRES WAVE SWELL AIR SEA DIR/SP/G HT/PER HT/PER/DIR (UTC) (F) (DEG/KT/KT) (MB) (FT/S) (FT/S/D) Winyah Bay 0730 72 150/ 7 1020.0S Lake Murray NOT AVBL ACE Basin NERRS 0745 74 CALM 1020.0R Fort Pulaski 0800 75 78 230/ 5/ 7 1019.7 Sapelo Island 0800 74 190/ 5 1019.0 $$ ANZ835-935-AMZ111-154-330-350-352-354-370-450-454-472-200900- ...C-MAN and Buoy Observations... STATION/POSITION TIME TEMP WIND PRES WAVE SWELL AIR SEA DIR/SP/G HT/PER HT/PER/DIR (UTC) (F) (DEG/KT/KT) (MB) (FT/S) (FT/S/D) Buoy 41004 0800 74 250/ 4/ 6 1019.9 Buoy 41008 0750 75 75 210/ 10/ 12 1019.2R 5/ 9 3/110/ 9 Folly Beach CMAN 0800 74 220/ 10/ 13 1020.3S Capers Nearshore 0808 75 75 220/ 10/ 14 1020.5S Fripp Nearshore 0808 74 77 220/ 10/ 14 1019.1R STATION/POSITION TIME TEMP WIND PRES WAVE SWELL AIR SEA DIR/SP/G HT/PER HT/PER/DIR (UTC) (F) (DEG/KT/KT) (MB) (FT/S) (FT/S/D) 5E St. Marys GA 0800 74 N/A 4/ 8 Frying Pan Buoy 0810 76 75 180/ 12/ 16 1020.6 Buoy 41025 0810 77 75 200/ 17/ 21 1021.8 Cape Lookout NC 0800 190/ 12/ 14 1021.5F Buoy 41002 0810 77 160/ 16/ 19 1022.3 Buoy 41010 0810 77 79 130/ 19/ 23 1019.7 St Augustine FL 0800 71 76 250/ 3/ 4 1019.4R $$

USA.gov is the U.S. government's official web portal to all federal, state and local government web resources and services.